CW5272 Weather Reports


time (UTC)temp
C
wind
direction
speed
KPH
gust
KPH
rain 1hr
cm
rain 24hr
cm
rain mn
cm
humidity
%
barometer
mb
20260503193045 13 187 1.6 11.3 0.00 0.03 0.03 73 1013.7
20260503191602 13 0 3.2 14.5 0.00 0.03 0.03 72 1013.7
20260503190035 13 0 3.2 12.9 0.00 0.03 0.03 71 1013.7
20260503184537 14 161 0.0 12.9 0.00 0.03 0.03 72 1013.7
20260503183035 13 159 1.6 11.3 0.00 0.03 0.03 75 1013.7
20260503181546 13 0 3.2 16.1 0.00 0.03 0.03 75 1013.7
20260503180038 12 0 0.0 12.9 0.00 0.03 0.03 77 1013.7
20260503174539 12 197 0.0 12.9 0.00 0.03 0.03 79 1013.9
20260503173032 12 0 1.6 14.5 0.00 0.03 0.03 84 1013.6
20260503171534 11 0 0.0 11.3 0.00 0.03 0.03 87 1013.7
20260503081539 10 0 0.0 9.7 0.00 0.00 0.00 90 1012.2
20260503071531 10 0 0.0 8.0 0.00 0.00 0.00 89 1012.4
20260503054549 10 175 0.0 9.7 0.00 0.00 0.00 89 1012.5
20260503053032 10 0 0.0 9.7 0.00 0.00 0.00 88 1012.6
20260503051534 10 175 1.6 11.3 0.00 0.00 0.00 88 1012.7
20260503050040 10 0 3.2 12.9 0.00 0.00 0.00 88 1012.8
20260503044540 11 172 3.2 16.1 0.00 0.00 0.00 87 1012.6
20260503043050 11 163 0.0 11.3 0.00 0.00 0.00 87 1012.3
20260503041538 11 157 1.6 12.9 0.00 0.00 0.00 86 1012.4
20260503040036 11 0 1.6 12.9 0.00 0.00 0.00 86 1012.1
20260503034540 12 0 1.6 6.4 0.00 0.00 0.00 85 1012.0
20260503033032 12 0 0.0 0.0 0.00 0.00 0.00 85 1011.7
20260503031532 12 0 0.0 4.8 0.00 0.00 0.00 85 1011.6
20260503030037 12 0 0.0 0.0 0.00 0.00 0.00 85 1011.6
20260503024537 13 0 0.0 1.6 0.00 0.00 0.00 84 1011.6
20260503023030 13 0 0.0 0.0 0.00 0.00 0.00 83 1011.4
20260503021538 13 0 0.0 1.6 0.00 0.00 0.00 82 1011.4
20260503020033 14 0 0.0 0.0 0.00 0.00 0.00 80 1011.5
20260503014538 15 0 0.0 0.0 0.00 0.00 0.00 80 1011.5
20260503013040 15 0 0.0 3.2 0.00 0.00 0.00 78 1011.6
20260503011533 15 0 0.0 4.8 0.00 0.00 0.00 77 1011.6
20260503010032 15 0 0.0 3.2 0.00 0.00 0.00 77 1011.6
20260503004536 16 0 0.0 8.0 0.00 0.00 0.00 75 1011.5
20260503003044 16 0 0.0 1.6 0.00 0.00 0.00 75 1011.5
20260503001541 17 0 0.0 4.8 0.00 0.00 0.00 73 1011.6
20260503000036 17 0 0.0 8.0 0.00 0.00 0.00 74 1011.6
20260502234546 17 0 0.0 6.4 0.00 0.00 0.00 72 1011.7
20260502233041 17 0 0.0 8.0 0.00 0.00 0.00 74 1011.9
20260502231538 17 0 0.0 6.4 0.00 0.00 0.00 74 1012.0
20260502230039 17 0 1.6 12.9 0.00 0.00 0.00 73 1012.4
20260502224542 18 0 0.0 8.0 0.00 0.00 0.00 72 1012.7
20260502223040 16 0 0.0 9.7 0.00 0.00 0.00 74 1012.8
20260502221533 17 0 3.2 9.7 0.00 0.00 0.00 75 1013.1
20260502220038 17 163 3.2 14.5 0.00 0.00 0.00 75 1013.4
20260502214544 17 165 1.6 20.9 0.00 0.00 0.00 75 1013.5
20260502213032 17 0 1.6 9.7 0.00 0.00 0.00 74 1013.6
20260502211538 16 172 0.0 9.7 0.00 0.00 0.00 78 1013.6
20260502210037 15 0 0.0 9.7 0.00 0.00 0.00 80 1013.8
20260502204533 15 0 0.0 4.8 0.00 0.00 0.00 80 1014.0
20260502203033 14 0 0.0 6.4 0.00 0.00 0.00 81 1014.2
20260502201530 14 187 0.0 6.4 0.00 0.00 0.00 82 1014.4
20260502200039 14 0 0.0 6.4 0.00 0.00 0.00 84 1014.6
20260502194538 13 0 0.0 8.0 0.00 0.00 0.00 85 1014.9